Time,TemperatureF,DewpointF,PressureIn,WindDirection,WindDirectionDegrees,WindSpeedMPH,WindSpeedGustMPH,Humidity,HourlyPrecipIn,Conditions,Clouds,dailyrainin,SolarRadiationWatts/m^2,SoftwareType,DateUTC
2013-01-20 00:04:00,39.0,25.0,-100.00,SW,218,7.0,14.0,58,0.00,,,0.20,0.000000,,2013-01-20 05:04:00,
2013-01-20 00:10:00,38.0,25.0,-100.00,SSW,199,9.0,15.0,60,0.00,,,0.20,0.000000,,2013-01-20 05:10:00,
2013-01-20 00:33:00,38.0,25.0,-100.00,SSW,199,9.0,15.0,60,0.00,,,0.20,0.000000,,2013-01-20 05:33:00,
2013-01-20 00:43:00,38.0,25.0,-100.00,SSW,199,9.0,15.0,60,0.00,,,0.20,0.000000,,2013-01-20 05:43:00,
2013-01-20 00:53:00,38.0,25.0,-100.00,SSW,199,9.0,15.0,60,0.00,,,0.20,0.000000,,2013-01-20 05:53:00,
2013-01-20 01:02:00,38.0,25.0,-100.00,SSW,199,9.0,15.0,60,0.00,,,0.20,0.000000,,2013-01-20 06:02:00,
2013-01-20 01:10:00,37.0,26.0,-100.00,SSW,209,7.0,16.0,63,0.00,,,0.20,0.000000,,2013-01-20 06:10:00,
2013-01-20 01:33:00,37.0,26.0,-100.00,SSW,209,7.0,16.0,63,0.00,,,0.20,0.000000,,2013-01-20 06:33:00,
2013-01-20 01:43:00,37.0,26.0,-100.00,SSW,209,7.0,16.0,63,0.00,,,0.20,0.000000,,2013-01-20 06:43:00,
2013-01-20 01:53:00,37.0,26.0,-100.00,SSW,209,7.0,16.0,63,0.00,,,0.20,0.000000,,2013-01-20 06:53:00,
2013-01-20 02:02:00,37.0,26.0,-100.00,SSW,209,7.0,16.0,63,0.00,,,0.20,0.000000,,2013-01-20 07:02:00,
2013-01-20 02:10:00,37.0,26.0,-100.00,SW,217,8.0,14.0,65,0.00,,,0.20,0.000000,,2013-01-20 07:10:00,
2013-01-20 02:32:00,37.0,26.0,-100.00,SW,217,8.0,14.0,65,0.00,,,0.20,0.000000,,2013-01-20 07:32:00,
2013-01-20 02:42:00,37.0,26.0,-100.00,SW,217,8.0,14.0,65,0.00,,,0.20,0.000000,,2013-01-20 07:42:00,
2013-01-20 02:52:00,37.0,26.0,-100.00,SW,217,8.0,14.0,65,0.00,,,0.20,0.000000,,2013-01-20 07:52:00,
2013-01-20 03:02:00,37.0,26.0,-100.00,SW,217,8.0,14.0,65,0.00,,,0.20,0.000000,,2013-01-20 08:02:00,
2013-01-20 03:10:00,36.0,26.0,-100.00,SW,223,8.0,15.0,66,0.00,,,0.20,0.000000,,2013-01-20 08:10:00,
2013-01-20 03:42:00,36.0,26.0,-100.00,SW,223,8.0,15.0,66,0.00,,,0.20,0.000000,,2013-01-20 08:42:00,
2013-01-20 03:53:00,36.0,26.0,-100.00,SW,223,8.0,15.0,66,0.00,,,0.20,0.000000,,2013-01-20 08:53:00,
2013-01-20 04:02:00,36.0,26.0,-100.00,SW,223,8.0,15.0,66,0.00,,,0.20,0.000000,,2013-01-20 09:02:00,
2013-01-20 04:10:00,36.0,25.0,-100.00,SW,215,7.0,13.0,65,0.00,,,0.20,0.000000,,2013-01-20 09:10:00,
2013-01-20 04:33:00,36.0,25.0,-100.00,SW,215,7.0,13.0,65,0.00,,,0.20,0.000000,,2013-01-20 09:33:00,
2013-01-20 04:42:00,36.0,25.0,-100.00,SW,215,7.0,13.0,65,0.00,,,0.20,0.000000,,2013-01-20 09:42:00,
2013-01-20 04:53:00,36.0,25.0,-100.00,SW,215,7.0,13.0,65,0.00,,,0.20,0.000000,,2013-01-20 09:53:00,
2013-01-20 05:03:00,36.0,25.0,-100.00,SW,215,7.0,13.0,65,0.00,,,0.20,0.000000,,2013-01-20 10:03:00,
2013-01-20 05:10:00,36.0,25.0,-100.00,SW,214,9.0,15.0,64,0.00,,,0.20,0.000000,,2013-01-20 10:10:00,
2013-01-20 05:33:00,36.0,25.0,-100.00,SW,214,9.0,15.0,64,0.00,,,0.20,0.000000,,2013-01-20 10:33:00,
2013-01-20 05:42:00,36.0,25.0,-100.00,SW,214,9.0,15.0,64,0.00,,,0.20,0.000000,,2013-01-20 10:42:00,
2013-01-20 05:53:00,36.0,25.0,-100.00,SW,214,9.0,15.0,64,0.00,,,0.20,0.000000,,2013-01-20 10:53:00,
2013-01-20 06:03:00,36.0,25.0,-100.00,SW,214,9.0,15.0,64,0.00,,,0.20,0.000000,,2013-01-20 11:03:00,
2013-01-20 06:10:00,35.0,24.0,-100.00,SSW,201,9.0,14.0,65,0.00,,,0.20,0.000000,,2013-01-20 11:10:00,
2013-01-20 06:33:00,35.0,24.0,-100.00,SSW,201,9.0,14.0,65,0.00,,,0.20,0.000000,,2013-01-20 11:33:00,
2013-01-20 06:43:00,35.0,24.0,-100.00,SSW,201,9.0,14.0,65,0.00,,,0.20,0.000000,,2013-01-20 11:43:00,
2013-01-20 06:54:00,35.0,24.0,-100.00,SSW,201,9.0,14.0,65,0.00,,,0.20,0.000000,,2013-01-20 11:54:00,
2013-01-20 07:03:00,35.0,24.0,-100.00,SSW,201,9.0,14.0,65,0.00,,,0.20,0.000000,,2013-01-20 12:03:00,
2013-01-20 07:10:00,36.0,26.0,-100.00,SSW,206,10.0,15.0,66,0.00,,,0.20,0.000000,,2013-01-20 12:10:00,
2013-01-20 07:33:00,36.0,26.0,-100.00,SSW,206,10.0,15.0,66,0.00,,,0.20,0.000000,,2013-01-20 12:33:00,
2013-01-20 07:43:00,36.0,26.0,-100.00,SSW,206,10.0,15.0,66,0.00,,,0.20,0.000000,,2013-01-20 12:43:00,
2013-01-20 07:53:00,36.0,26.0,-100.00,SSW,206,10.0,15.0,66,0.00,,,0.20,0.000000,,2013-01-20 12:53:00,
2013-01-20 08:03:00,36.0,26.0,-100.00,SSW,206,10.0,15.0,66,0.00,,,0.20,0.000000,,2013-01-20 13:03:00,
2013-01-20 08:10:00,38.0,25.0,-100.00,SSW,206,9.0,16.0,60,0.00,,,0.20,29.000000,,2013-01-20 13:10:00,
2013-01-20 08:33:00,38.0,25.0,-100.00,SSW,206,9.0,16.0,60,0.00,,,0.20,29.000000,,2013-01-20 13:33:00,
2013-01-20 08:43:00,38.0,25.0,-100.00,SSW,206,9.0,16.0,60,0.00,,,0.20,29.000000,,2013-01-20 13:43:00,
2013-01-20 08:53:00,38.0,25.0,-100.00,SSW,206,9.0,16.0,60,0.00,,,0.20,29.000000,,2013-01-20 13:53:00,
2013-01-20 09:03:00,38.0,25.0,-100.00,SSW,206,9.0,16.0,60,0.00,,,0.20,29.000000,,2013-01-20 14:03:00,
2013-01-20 09:10:00,43.0,27.0,-100.00,WSW,238,7.0,16.0,53,0.00,,,0.20,176.000000,,2013-01-20 14:10:00,
2013-01-20 09:33:00,43.0,27.0,-100.00,WSW,238,7.0,16.0,53,0.00,,,0.20,176.000000,,2013-01-20 14:33:00,
2013-01-20 09:43:00,43.0,27.0,-100.00,WSW,238,7.0,16.0,53,0.00,,,0.20,176.000000,,2013-01-20 14:43:00,
2013-01-20 09:53:00,43.0,27.0,-100.00,WSW,238,7.0,16.0,53,0.00,,,0.20,176.000000,,2013-01-20 14:53:00,
2013-01-20 10:03:00,43.0,27.0,-100.00,WSW,238,7.0,16.0,53,0.00,,,0.20,176.000000,,2013-01-20 15:03:00,
2013-01-20 10:10:00,47.0,26.0,-100.00,SW,230,11.0,23.0,44,0.00,,,0.20,368.000000,,2013-01-20 15:10:00,
2013-01-20 10:33:00,47.0,26.0,-100.00,SW,230,11.0,23.0,44,0.00,,,0.20,368.000000,,2013-01-20 15:33:00,
2013-01-20 10:43:00,47.0,26.0,-100.00,SW,230,11.0,23.0,44,0.00,,,0.20,368.000000,,2013-01-20 15:43:00,
2013-01-20 10:53:00,47.0,26.0,-100.00,SW,230,11.0,23.0,44,0.00,,,0.20,368.000000,,2013-01-20 15:53:00,
2013-01-20 11:03:00,47.0,26.0,-100.00,SW,230,11.0,23.0,44,0.00,,,0.20,368.000000,,2013-01-20 16:03:00,
2013-01-20 11:10:00,48.0,28.0,-100.00,WSW,251,12.0,25.0,45,0.00,,,0.19,337.000000,,2013-01-20 16:10:00,
2013-01-20 11:33:00,48.0,28.0,-100.00,WSW,251,12.0,25.0,45,0.00,,,0.19,337.000000,,2013-01-20 16:33:00,
2013-01-20 11:43:00,48.0,28.0,-100.00,WSW,251,12.0,25.0,45,0.00,,,0.19,337.000000,,2013-01-20 16:43:00,
2013-01-20 11:53:00,48.0,28.0,-100.00,WSW,251,12.0,25.0,45,0.00,,,0.19,337.000000,,2013-01-20 16:53:00,
2013-01-20 12:03:00,48.0,28.0,-100.00,WSW,251,12.0,25.0,45,0.00,,,0.19,337.000000,,2013-01-20 17:03:00,
2013-01-20 12:10:00,48.0,27.0,-100.00,WSW,258,14.0,29.0,44,0.00,,,0.17,389.000000,,2013-01-20 17:10:00,
2013-01-20 12:33:00,48.0,27.0,-100.00,WSW,258,14.0,29.0,44,0.00,,,0.17,389.000000,,2013-01-20 17:33:00,
2013-01-20 12:43:00,48.0,27.0,-100.00,WSW,258,14.0,29.0,44,0.00,,,0.17,389.000000,,2013-01-20 17:43:00,
2013-01-20 12:53:00,48.0,27.0,-100.00,WSW,258,14.0,29.0,44,0.00,,,0.17,389.000000,,2013-01-20 17:53:00,
2013-01-20 13:03:00,48.0,27.0,-100.00,WSW,258,14.0,29.0,44,0.00,,,0.17,389.000000,,2013-01-20 18:03:00,
2013-01-20 13:10:00,49.0,27.0,-100.00,WSW,257,12.0,24.0,42,0.00,,,0.13,406.000000,,2013-01-20 18:10:00,
2013-01-20 13:33:00,49.0,27.0,-100.00,WSW,257,12.0,24.0,42,0.00,,,0.13,406.000000,,2013-01-20 18:33:00,
2013-01-20 13:43:00,49.0,27.0,-100.00,WSW,257,12.0,24.0,42,0.00,,,0.13,406.000000,,2013-01-20 18:43:00,
2013-01-20 13:53:00,49.0,27.0,-100.00,WSW,257,12.0,24.0,42,0.00,,,0.13,406.000000,,2013-01-20 18:53:00,
2013-01-20 14:03:00,49.0,27.0,-100.00,WSW,257,12.0,24.0,42,0.00,,,0.13,406.000000,,2013-01-20 19:03:00,
2013-01-20 14:10:00,48.0,16.0,-100.00,WNW,288,11.0,29.0,28,0.00,,,0.07,390.000000,,2013-01-20 19:10:00,
2013-01-20 14:33:00,48.0,16.0,-100.00,WNW,288,11.0,29.0,28,0.00,,,0.07,390.000000,,2013-01-20 19:33:00,
2013-01-20 14:43:00,48.0,16.0,-100.00,WNW,288,11.0,29.0,28,0.00,,,0.07,390.000000,,2013-01-20 19:43:00,
2013-01-20 14:53:00,48.0,16.0,-100.00,WNW,288,11.0,29.0,28,0.00,,,0.07,390.000000,,2013-01-20 19:53:00,
2013-01-20 15:03:00,48.0,16.0,-100.00,WNW,288,11.0,29.0,28,0.00,,,0.07,390.000000,,2013-01-20 20:03:00,
2013-01-20 15:10:00,46.0,14.0,-100.00,West,268,15.0,26.0,27,0.00,,,0.03,324.000000,,2013-01-20 20:10:00,
2013-01-20 15:42:00,46.0,14.0,-100.00,West,268,15.0,26.0,27,0.00,,,0.03,324.000000,,2013-01-20 20:42:00,
2013-01-20 15:54:00,46.0,14.0,-100.00,West,268,15.0,26.0,27,0.00,,,0.03,324.000000,,2013-01-20 20:54:00,
2013-01-20 16:04:00,46.0,14.0,-100.00,West,268,15.0,26.0,27,0.00,,,0.03,324.000000,,2013-01-20 21:04:00,
2013-01-20 16:10:00,43.0,10.0,-100.00,West,279,10.0,29.0,26,0.00,,,0.00,231.000000,,2013-01-20 21:10:00,
2013-01-20 16:33:00,43.0,10.0,-100.00,West,279,10.0,29.0,26,0.00,,,0.00,231.000000,,2013-01-20 21:33:00,
2013-01-20 16:43:00,43.0,10.0,-100.00,West,279,10.0,29.0,26,0.00,,,0.00,231.000000,,2013-01-20 21:43:00,
2013-01-20 16:53:00,43.0,10.0,-100.00,West,279,10.0,29.0,26,0.00,,,0.00,231.000000,,2013-01-20 21:53:00,
2013-01-20 17:03:00,43.0,10.0,-100.00,West,279,10.0,29.0,26,0.00,,,0.00,231.000000,,2013-01-20 22:03:00,
2013-01-20 17:10:00,38.0,9.0,-100.00,West,276,13.0,26.0,29,0.00,,,0.00,51.000000,,2013-01-20 22:10:00,
2013-01-20 17:33:00,38.0,9.0,-100.00,West,276,13.0,26.0,29,0.00,,,0.00,51.000000,,2013-01-20 22:33:00,
2013-01-20 17:43:00,38.0,9.0,-100.00,West,276,13.0,26.0,29,0.00,,,0.00,51.000000,,2013-01-20 22:43:00,
2013-01-20 17:53:00,38.0,9.0,-100.00,West,276,13.0,26.0,29,0.00,,,0.00,51.000000,,2013-01-20 22:53:00,
2013-01-20 18:03:00,38.0,9.0,-100.00,West,276,13.0,26.0,29,0.00,,,0.00,51.000000,,2013-01-20 23:03:00,
2013-01-20 18:10:00,35.0,10.0,-100.00,West,273,10.0,23.0,35,0.00,,,0.00,1.000000,,2013-01-20 23:10:00,
2013-01-20 18:33:00,35.0,10.0,-100.00,West,273,10.0,23.0,35,0.00,,,0.00,1.000000,,2013-01-20 23:33:00,
2013-01-20 18:43:00,35.0,10.0,-100.00,West,273,10.0,23.0,35,0.00,,,0.00,1.000000,,2013-01-20 23:43:00,
2013-01-20 18:53:00,35.0,10.0,-100.00,West,273,10.0,23.0,35,0.00,,,0.00,1.000000,,2013-01-20 23:53:00,
2013-01-20 19:03:00,35.0,10.0,-100.00,West,273,10.0,23.0,35,0.00,,,0.00,1.000000,,2013-01-21 00:03:00,
2013-01-20 19:10:00,33.0,10.0,-100.00,West,273,11.0,21.0,37,0.00,,,0.00,0.000000,,2013-01-21 00:10:00,
2013-01-20 19:33:00,33.0,10.0,-100.00,West,273,11.0,21.0,37,0.00,,,0.00,0.000000,,2013-01-21 00:33:00,
2013-01-20 19:43:00,33.0,10.0,-100.00,West,273,11.0,21.0,37,0.00,,,0.00,0.000000,,2013-01-21 00:43:00,
2013-01-20 19:54:00,33.0,10.0,-100.00,West,273,11.0,21.0,37,0.00,,,0.00,0.000000,,2013-01-21 00:54:00,
2013-01-20 20:03:00,33.0,10.0,-100.00,West,273,11.0,21.0,37,0.00,,,0.00,0.000000,,2013-01-21 01:03:00,
2013-01-20 20:10:00,31.0,9.0,-100.00,West,273,9.0,22.0,39,0.00,,,0.00,0.000000,,2013-01-21 01:10:00,
2013-01-20 20:33:00,31.0,9.0,-100.00,West,273,9.0,22.0,39,0.00,,,0.00,0.000000,,2013-01-21 01:33:00,
2013-01-20 20:43:00,31.0,9.0,-100.00,West,273,9.0,22.0,39,0.00,,,0.00,0.000000,,2013-01-21 01:43:00,
2013-01-20 20:53:00,31.0,9.0,-100.00,West,273,9.0,22.0,39,0.00,,,0.00,0.000000,,2013-01-21 01:53:00,
2013-01-20 21:03:00,31.0,9.0,-100.00,West,273,9.0,22.0,39,0.00,,,0.00,0.000000,,2013-01-21 02:03:00,
2013-01-20 21:10:00,29.0,9.0,-100.00,West,279,8.0,15.0,42,0.00,,,0.00,0.000000,,2013-01-21 02:10:00,
2013-01-20 21:33:00,29.0,9.0,-100.00,West,279,8.0,15.0,42,0.00,,,0.00,0.000000,,2013-01-21 02:33:00,
2013-01-20 21:43:00,29.0,9.0,-100.00,West,279,8.0,15.0,42,0.00,,,0.00,0.000000,,2013-01-21 02:43:00,
2013-01-20 21:53:00,29.0,9.0,-100.00,West,279,8.0,15.0,42,0.00,,,0.00,0.000000,,2013-01-21 02:53:00,
2013-01-20 22:03:00,29.0,9.0,-100.00,West,279,8.0,15.0,42,0.00,,,0.00,0.000000,,2013-01-21 03:03:00,
2013-01-20 22:10:00,28.0,9.0,-100.00,WNW,293,7.0,17.0,45,0.00,,,0.00,0.000000,,2013-01-21 03:10:00,
2013-01-20 22:33:00,28.0,9.0,-100.00,WNW,293,7.0,17.0,45,0.00,,,0.00,0.000000,,2013-01-21 03:33:00,
2013-01-20 22:43:00,28.0,9.0,-100.00,WNW,293,7.0,17.0,45,0.00,,,0.00,0.000000,,2013-01-21 03:43:00,
2013-01-20 22:54:00,28.0,9.0,-100.00,WNW,293,7.0,17.0,45,0.00,,,0.00,0.000000,,2013-01-21 03:54:00,
2013-01-20 23:03:00,28.0,9.0,-100.00,WNW,293,7.0,17.0,45,0.00,,,0.00,0.000000,,2013-01-21 04:03:00,
2013-01-20 23:10:00,26.0,9.0,-100.00,NW,310,7.0,16.0,49,0.00,,,0.00,0.000000,,2013-01-21 04:10:00,
2013-01-20 23:33:00,26.0,9.0,-100.00,NW,310,7.0,16.0,49,0.00,,,0.00,0.000000,,2013-01-21 04:33:00,
2013-01-20 23:43:00,26.0,9.0,-100.00,NW,310,7.0,16.0,49,0.00,,,0.00,0.000000,,2013-01-21 04:43:00,
2013-01-20 23:53:00,26.0,9.0,-100.00,NW,310,7.0,16.0,49,0.00,,,0.00,0.000000,,2013-01-21 04:53:00,